This demonstration page uses our WeatherBlox Daily Observations layout. Learn more.

Hourly Observations for February 9, 2019

Temp ( °F °C ) Dew Point ( °F °C ) Humidity (%) Winds ( mph kmh ) Pressure ( in mb ) Visibility ( mi km ) Precip ( " mm )
12:15 am 00:15 Clear 32 0 18 -8 55 55 NW 22 35 30.5 1033 10 16.09344 0 0
12:35 am 00:35 Clear 32 0 18 -8 55 55 NW 18 30 30.5 1033 10 16.09344 0 0
12:55 am 00:55 Clear 32 0 18 -8 55 55 NW 23 37 30.5 1033 10 16.09344 0 0
1:15 am 01:15 Clear 32 0 18 -8 55 55 NW 17 28 30.5 1033 10 16.09344 0 0
1:35 am 01:35 Clear 32 0 18 -8 55 55 NW 14 22 30.53 1034 10 16.09344 0 0
1:55 am 01:55 Clear 32 0 18 -8 55 55 N 13 20 30.53 1034 10 16.09344 0 0
2:15 am 02:15 Clear 32 0 16 -9 51 51 NW 14 22 30.53 1034 10 16.09344 0 0
2:35 am 02:35 Clear 32 0 16 -9 51 51 NW 17 28 30.53 1034 10 16.09344 0 0
2:55 am 02:55 Clear 30 -1 16 -9 55 55 NW 18 30 30.53 1034 10 16.09344 0 0
3:15 am 03:15 Clear 30 -1 16 -9 55 55 NW 21 33 30.53 1034 10 16.09344 0 0
3:35 am 03:35 Clear 30 -1 16 -9 55 55 NW 17 28 30.53 1034 10 16.09344 0 0
3:55 am 03:55 Clear 30 -1 18 -8 59 59 NW 17 28 30.53 1034 10 16.09344 0 0
4:15 am 04:15 Clear 30 -1 18 -8 59 59 NNW 10 17 30.56 1035 10 16.09344 0 0
4:35 am 04:35 Clear 30 -1 16 -9 55 55 NNW 18 30 30.56 1035 10 16.09344 0 0
4:55 am 04:55 Clear 30 -1 14 -10 51 51 NW 20 31 30.56 1035 10 16.09344 0 0
5:15 am 05:15 Clear 28 -2 14 -10 55 55 NNW 17 28 30.59 1036 10 16.09344 0 0
5:35 am 05:35 Clear 28 -2 14 -10 55 55 NNW 15 24 30.59 1036 10 16.09344 0 0
5:55 am 05:55 Clear 28 -2 12 -11 51 51 NNW 14 22 30.62 1037 10 16.09344 0 0
6:15 am 06:15 Clear 28 -2 14 -10 55 55 N 8 13 30.62 1037 10 16.09344 0 0
6:35 am 06:35 Clear 28 -2 14 -10 55 55 NNW 16 26 30.62 1037 10 16.09344 0 0
6:55 am 06:55 Clear 27 -3 14 -10 59 59 NNW 13 20 30.65 1038 10 16.09344 0 0
7:15 am 07:15 Sunny 27 -3 12 -11 54 54 NNW 15 24 30.65 1038 10 16.09344 0 0
7:35 am 07:35 Sunny 27 -3 12 -11 54 54 NNW 17 28 30.71 1040 10 16.09344 0 0
7:55 am 07:55 Sunny 27 -3 12 -11 54 54 NNW 14 22 30.74 1041 10 16.09344 0 0
8:15 am 08:15 Sunny 27 -3 12 -11 54 54 NNW 15 24 30.74 1041 10 16.09344 0 0
8:35 am 08:35 Sunny 27 -3 12 -11 54 54 N 17 28 30.74 1041 10 16.09344 0 0
8:55 am 08:55 Sunny 28 -2 12 -11 51 51 NNW 16 26 30.74 1041 10 16.09344 0 0
9:15 am 09:15 Sunny 28 -2 12 -11 51 51 N 14 22 30.74 1041 10 16.09344 0 0
9:35 am 09:35 Sunny 28 -2 12 -11 51 51 NNW 16 26 30.74 1041 10 16.09344 0 0
9:55 am 09:55 Sunny 28 -2 12 -11 51 51 N 21 33 30.77 1042 10 16.09344 0 0
10:15 am 10:15 Sunny 28 -2 12 -11 51 51 N 15 24 30.77 1042 10 16.09344 0 0
10:35 am 10:35 Sunny 28 -2 12 -11 51 51 NNW 16 26 30.77 1042 10 16.09344 0 0
10:55 am 10:55 Sunny 30 -1 12 -11 47 47 N 15 24 30.77 1042 10 16.09344 0 0
11:15 am 11:15 Sunny 30 -1 10 -12 43 43 N 17 28 30.77 1042 10 16.09344 0 0
11:35 am 11:35 Sunny 30 -1 12 -11 47 47 N 13 20 30.77 1042 10 16.09344 0 0
11:55 am 11:55 Sunny 32 0 12 -11 44 44 N 10 17 30.77 1042 10 16.09344 0 0
12:15 pm 12:15 Sunny 32 0 12 -11 44 44 N 15 24 30.77 1042 10 16.09344 0 0
12:35 pm 12:35 Sunny 32 0 14 -10 47 47 NW 17 28 30.74 1041 10 16.09344 0 0
12:55 pm 12:55 Sunny 32 0 14 -10 47 47 NNW 16 26 30.74 1041 10 16.09344 0 0
1:15 pm 13:15 Sunny 32 0 12 -11 44 44 N 10 17 30.74 1041 10 16.09344 0 0
1:35 pm 13:35 Sunny 32 0 14 -10 47 47 N 12 19 30.74 1041 10 16.09344 0 0
1:55 pm 13:55 Sunny 32 0 12 -11 44 44 N 15 24 30.74 1041 10 16.09344 0 0
2:15 pm 14:15 Sunny 34 1 14 -10 44 44 NNW 12 19 30.74 1041 10 16.09344 0 0
2:35 pm 14:35 Sunny 34 1 14 -10 44 44 N 12 19 30.74 1041 10 16.09344 0 0
2:55 pm 14:55 Sunny 34 1 14 -10 44 44 N 12 19 30.74 1041 10 16.09344 0 0
3:15 pm 15:15 Sunny 34 1 14 -10 44 44 NNW 13 20 30.74 1041 10 16.09344 0 0
3:35 pm 15:35 Sunny 34 1 14 -10 44 44 NNW 15 24 30.74 1041 10 16.09344 0 0
3:55 pm 15:55 Sunny 34 1 12 -11 41 41 N 12 19 30.74 1041 10 16.09344 0 0
4:15 pm 16:15 Sunny 34 1 12 -11 41 41 N 12 19 30.74 1041 10 16.09344 0 0
4:35 pm 16:35 Sunny 34 1 12 -11 41 41 N 9 15 30.74 1041 10 16.09344 0 0
4:55 pm 16:55 Sunny 34 1 12 -11 41 41 N 6 9 30.74 1041 10 16.09344 0 0
5:15 pm 17:15 Sunny 34 1 12 -11 41 41 NNW 9 15 30.74 1041 10 16.09344 0 0
5:35 pm 17:35 Sunny 32 0 12 -11 44 44 N 5 7 30.74 1041 10 16.09344 0 0
5:55 pm 17:55 Clear 32 0 12 -11 44 44 Calm 30.74 1041 10 16.09344 0 0
6:15 pm 18:15 Clear 32 0 12 -11 44 44 Calm 30.74 1041 10 16.09344 0 0
6:35 pm 18:35 Clear 32 0 14 -10 47 47 Calm 30.74 1041 10 16.09344 0 0
6:55 pm 18:55 Clear 32 0 14 -10 47 47 Calm 30.74 1041 10 16.09344 0 0
7:15 pm 19:15 Clear 30 -1 14 -10 51 51 Calm 30.74 1041 10 16.09344 0 0
7:35 pm 19:35 Clear 28 -2 19 -7 69 69 Calm 30.74 1041 10 16.09344 0 0
7:55 pm 19:55 Clear 28 -2 18 -8 64 64 Calm 30.74 1041 10 16.09344 0 0
8:15 pm 20:15 Clear 28 -2 18 -8 64 64 N 3 6 30.74 1041 10 16.09344 0 0
8:35 pm 20:35 Clear 28 -2 19 -7 69 69 NNW 3 6 30.74 1041 10 16.09344 0 0
8:55 pm 20:55 Clear 27 -3 19 -7 74 74 Calm 30.8 1043 10 16.09344 0 0
9:15 pm 21:15 Clear 28 -2 19 -7 69 69 NNE 6 9 30.77 1042 10 16.09344 0 0
9:35 pm 21:35 Clear 30 -1 14 -10 51 51 NNE 6 9 30.77 1042 10 16.09344 0 0
9:55 pm 21:55 Clear 27 -3 19 -7 74 74 Calm 30.8 1043 10 16.09344 0 0
10:15 pm 22:15 Clear 27 -3 19 -7 74 74 N 3 6 30.8 1043 10 16.09344 0 0
10:35 pm 22:35 Clear 27 -3 19 -7 74 74 NNE 3 6 30.77 1042 10 16.09344 0 0
10:55 pm 22:55 Clear 28 -2 18 -8 64 64 NNE 5 7 30.74 1041 10 16.09344 0 0
11:15 pm 23:15 Clear 25 -4 19 -7 80 80 N 5 7 30.77 1042 10 16.09344 0 0
11:35 pm 23:35 Clear 23 -5 21 -6 93 93 Calm 30.77 1042 10 16.09344 0 0
11:55 pm 23:55 Clear 23 -5 19 -7 86 86 Calm 30.77 1042 10 16.09344 0 0

Powered by AerisWeather